CYGFM08

Last updated on Tue Jul 08 2025 00:02:21 GMT+0000 (Coordinated Universal Time)

1 41888U 16078E 25188.52445715 .00011359 00000+0 25419-3 0 9990 2 41888 34.9482 342.7592 0010151 159.0331 201.0806 15.42571206475447
UTC large
Height (km)
Speed (km/s)
/
Latitude / Longitude
Inclination (degrees)
Orbital Period (minutes)
Azimuth
Elevation
Range (km)
Doppler Factor

Next 0 passes for location: London (51.5072 / 0.1276)

Sorry there are no passes over London.